• în România
  • Lista ţărilor
  • Pe 7 zile
  • Temperatura apei
  • Hartă satelitară
  • Meteo pe hartă
  • Widget-uri
  • user-avatar
    Intrare

    Meteo pe oră la Kosyachiha

    Astăzi, 19 Iulie, Joi

    Timp Temperatura Precipitaţii Vânt Presiune Umiditate
    00:00 +19°C° 0 mm 3 m/s 744 mmHg 83%
    01:00 +19°C° 0 mm 3 m/s 744 mmHg 83%
    02:00 +18°C° 0 mm 3 m/s 744 mmHg 85%
    03:00 +19°C° 0 mm 3 m/s 744 mmHg 85%
    04:00 +19°C° 0 mm 3 m/s 744 mmHg 84%
    05:00 +19°C° 0 mm 4 m/s 744 mmHg 83%
    06:00 +20°C° 0 mm 4 m/s 744 mmHg 78%
    07:00 +22°C° 0 mm 4 m/s 744 mmHg 72%
    08:00 +23°C° 0 mm 5 m/s 744 mmHg 67%
    09:00 +25°C° 0,1 mm 5 m/s 744 mmHg 65%
    10:00 +26°C° 0,1 mm 5 m/s 744 mmHg 63%
    11:00 +27°C° 0,1 mm 5 m/s 743 mmHg 61%
    12:00 +26°C° 0,5 mm 5 m/s 743 mmHg 65%
    13:00 +26°C° 0,5 mm 5 m/s 743 mmHg 70%
    14:00 +26°C° 0,5 mm 5 m/s 743 mmHg 74%
    15:00 +25°C° 0,3 mm 5 m/s 743 mmHg 76%
    16:00 +23°C° 0,3 mm 5 m/s 743 mmHg 78%
    17:00 +23°C° 0,3 mm 4 m/s 743 mmHg 80%
    18:00 +22°C° 0 mm 4 m/s 743 mmHg 81%
    19:00 +22°C° 0 mm 4 m/s 743 mmHg 83%
    20:00 +21°C° 0 mm 3 m/s 743 mmHg 85%
    21:00 +20°C° 0 mm 3 m/s 743 mmHg 87%
    22:00 +20°C° 0 mm 3 m/s 743 mmHg 90%
    23:00 +19°C° 0 mm 3 m/s 743 mmHg 92%

    Mâine, 20 Iulie, Vineri

    Timp Temperatura Precipitaţii Vânt Presiune Umiditate
    00:00 +19°C° 0 mm 3 m/s 743 mmHg 92%
    01:00 +20°C° 0 mm 3 m/s 743 mmHg 92%
    02:00 +20°C° 0 mm 3 m/s 743 mmHg 92%
    03:00 +19°C° 0,1 mm 3 m/s 743 mmHg 92%
    04:00 +19°C° 0,1 mm 3 m/s 743 mmHg 92%
    05:00 +19°C° 0,1 mm 3 m/s 742 mmHg 92%
    06:00 +19°C° 0,1 mm 4 m/s 742 mmHg 92%
    07:00 +20°C° 0,1 mm 4 m/s 743 mmHg 92%
    08:00 +20°C° 0,1 mm 4 m/s 743 mmHg 92%
    09:00 +20°C° 0,1 mm 4 m/s 743 mmHg 90%
    10:00 +21°C° 0,1 mm 4 m/s 743 mmHg 88%
    11:00 +21°C° 0,1 mm 4 m/s 743 mmHg 86%
    12:00 +21°C° 0,1 mm 4 m/s 743 mmHg 85%
    13:00 +22°C° 0,1 mm 4 m/s 742 mmHg 84%
    14:00 +22°C° 0,1 mm 4 m/s 742 mmHg 83%
    15:00 +22°C° 0,1 mm 4 m/s 742 mmHg 83%
    16:00 +22°C° 0,1 mm 4 m/s 742 mmHg 82%
    17:00 +22°C° 0,1 mm 4 m/s 742 mmHg 82%
    18:00 +22°C° 0 mm 3 m/s 742 mmHg 84%
    19:00 +22°C° 0 mm 3 m/s 742 mmHg 86%
    20:00 +21°C° 0 mm 3 m/s 742 mmHg 88%
    21:00 +21°C° 0 mm 3 m/s 742 mmHg 90%
    22:00 +20°C° 0 mm 3 m/s 741 mmHg 93%
    23:00 +20°C° 0 mm 3 m/s 741 mmHg 95%

    Poimâine, 21 Iulie, Sâmbătă

    Timp Temperatura Precipitaţii Vânt Presiune Umiditate
    00:00 +19°C° 0 mm 3 m/s 741 mmHg 96%
    01:00 +19°C° 0 mm 3 m/s 741 mmHg 96%
    02:00 +19°C° 0 mm 3 m/s 741 mmHg 96%
    03:00 +19°C° 0,2 mm 3 m/s 741 mmHg 96%
    04:00 +19°C° 0,2 mm 3 m/s 741 mmHg 96%
    05:00 +20°C° 0,2 mm 3 m/s 742 mmHg 95%
    06:00 +20°C° 0,1 mm 3 m/s 742 mmHg 95%
    07:00 +20°C° 0,1 mm 3 m/s 742 mmHg 94%
    08:00 +21°C° 0,1 mm 3 m/s 742 mmHg 93%
    09:00 +21°C° 0,2 mm 3 m/s 742 mmHg 91%
    10:00 +22°C° 0,2 mm 3 m/s 742 mmHg 90%
    11:00 +24°C° 0,2 mm 3 m/s 742 mmHg 89%
    12:00 +24°C° 0,2 mm 3 m/s 742 mmHg 86%
    13:00 +25°C° 0,2 mm 3 m/s 742 mmHg 84%
    14:00 +26°C° 0,2 mm 3 m/s 742 mmHg 82%
    15:00 +26°C° 0,6 mm 3 m/s 742 mmHg 82%
    16:00 +26°C° 0,6 mm 3 m/s 742 mmHg 82%
    17:00 +26°C° 0,6 mm 3 m/s 742 mmHg 82%
    18:00 +25°C° 0,7 mm 3 m/s 742 mmHg 86%
    19:00 +24°C° 0,7 mm 3 m/s 742 mmHg 90%
    20:00 +23°C° 0,7 mm 2 m/s 742 mmHg 94%
    21:00 +23°C° 1,1 mm 2 m/s 742 mmHg 94%
    22:00 +21°C° 1,1 mm 3 m/s 742 mmHg 95%
    23:00 +21°C° 1,1 mm 3 m/s 742 mmHg 96%

    22 Iulie, Duminică

    Timp Temperatura Precipitaţii Vânt Presiune Umiditate
    00:00 +21°C° 0,3 mm 3 m/s 742 mmHg 96%
    01:00 +21°C° 0,3 mm 3 m/s 742 mmHg 97%
    02:00 +20°C° 0,3 mm 3 m/s 742 mmHg 98%
    03:00 +20°C° 0,4 mm 3 m/s 742 mmHg 98%
    04:00 +20°C° 0,4 mm 3 m/s 742 mmHg 97%
    05:00 +20°C° 0,4 mm 3 m/s 742 mmHg 97%
    06:00 +20°C° 0,1 mm 3 m/s 742 mmHg 96%
    07:00 +21°C° 0,1 mm 3 m/s 742 mmHg 95%
    08:00 +21°C° 0,1 mm 3 m/s 742 mmHg 94%
    09:00 +21°C° 0 mm 3 m/s 742 mmHg 91%
    10:00 +22°C° 0 mm 3 m/s 742 mmHg 88%
    11:00 +24°C° 0 mm 3 m/s 742 mmHg 84%
    12:00 +25°C° 0 mm 4 m/s 742 mmHg 78%
    13:00 +26°C° 0 mm 4 m/s 742 mmHg 73%
    14:00 +28°C° 0 mm 4 m/s 742 mmHg 67%
    15:00 +28°C° 0 mm 4 m/s 742 mmHg 68%
    16:00 +27°C° 0 mm 4 m/s 742 mmHg 69%
    17:00 +27°C° 0 mm 4 m/s 742 mmHg 71%
    18:00 +26°C° 0 mm 3 m/s 742 mmHg 77%
    19:00 +24°C° 0 mm 3 m/s 742 mmHg 84%
    20:00 +23°C° 0 mm 2 m/s 742 mmHg 91%
    21:00 +21°C° 0 mm 2 m/s 742 mmHg 93%
    22:00 +20°C° 0 mm 2 m/s 742 mmHg 95%
    23:00 +20°C° 0 mm 2 m/s 742 mmHg 97%

    23 Iulie, Luni

    Timp Temperatura Precipitaţii Vânt Presiune Umiditate
    00:00 +20°C° 0 mm 2 m/s 742 mmHg 98%
    01:00 +20°C° 0 mm 2 m/s 742 mmHg 98%
    02:00 +20°C° 0 mm 2 m/s 742 mmHg 98%
    03:00 +20°C° 0 mm 3 m/s 742 mmHg 97%
    04:00 +20°C° 0 mm 3 m/s 742 mmHg 96%
    05:00 +20°C° 0 mm 3 m/s 742 mmHg 95%
    06:00 +21°C° 0,1 mm 4 m/s 742 mmHg 94%
    07:00 +21°C° 0,1 mm 4 m/s 742 mmHg 93%
    08:00 +21°C° 0,1 mm 4 m/s 743 mmHg 92%
    09:00 +21°C° 0,1 mm 4 m/s 743 mmHg 91%
    10:00 +21°C° 0,1 mm 3 m/s 743 mmHg 89%
    11:00 +21°C° 0,1 mm 3 m/s 743 mmHg 88%
    12:00 +22°C° 0 mm 3 m/s 743 mmHg 87%
    13:00 +22°C° 0 mm 3 m/s 743 mmHg 85%
    14:00 +22°C° 0 mm 3 m/s 743 mmHg 84%
    15:00 +22°C° 0 mm 3 m/s 743 mmHg 83%
    16:00 +24°C° 0 mm 3 m/s 743 mmHg 82%
    17:00 +24°C° 0 mm 3 m/s 743 mmHg 81%
    18:00 +23°C° 0 mm 2 m/s 743 mmHg 85%
    19:00 +23°C° 0 mm 2 m/s 743 mmHg 88%
    20:00 +22°C° 0 mm 1 m/s 743 mmHg 92%
    21:00 +20°C° 1,1 mm 2 m/s 743 mmHg 94%
    22:00 +20°C° 1,1 mm 2 m/s 743 mmHg 96%
    23:00 +20°C° 1,1 mm 2 m/s 743 mmHg 97%

    24 Iulie, Marţi

    Timp Temperatura Precipitaţii Vânt Presiune Umiditate
    00:00 +19°C° 0,5 mm 2 m/s 744 mmHg 98%
    01:00 +19°C° 0,5 mm 2 m/s 744 mmHg 98%
    02:00 +19°C° 0,5 mm 2 m/s 744 mmHg 98%
    03:00 +19°C° 0 mm 2 m/s 744 mmHg 98%
    04:00 +19°C° 0 mm 2 m/s 744 mmHg 97%
    05:00 +20°C° 0 mm 3 m/s 744 mmHg 97%
    06:00 +20°C° 0 mm 3 m/s 744 mmHg 96%
    07:00 +20°C° 0 mm 3 m/s 744 mmHg 95%
    08:00 +20°C° 0 mm 3 m/s 745 mmHg 94%
    09:00 +20°C° 0 mm 3 m/s 745 mmHg 93%
    10:00 +21°C° 0 mm 3 m/s 745 mmHg 91%
    11:00 +21°C° 0 mm 3 m/s 745 mmHg 89%
    12:00 +22°C° 0,1 mm 3 m/s 745 mmHg 87%
    13:00 +22°C° 0,1 mm 3 m/s 745 mmHg 85%
    14:00 +24°C° 0,1 mm 3 m/s 746 mmHg 83%
    15:00 +24°C° 0,3 mm 3 m/s 746 mmHg 82%
    16:00 +24°C° 0,3 mm 3 m/s 745 mmHg 82%
    17:00 +25°C° 0,3 mm 3 m/s 745 mmHg 82%
    18:00 +24°C° 0,1 mm 2 m/s 746 mmHg 85%
    19:00 +23°C° 0,1 mm 2 m/s 746 mmHg 88%
    20:00 +21°C° 0,1 mm 2 m/s 746 mmHg 91%
    21:00 +21°C° 0 mm 2 m/s 746 mmHg 92%
    22:00 +20°C° 0 mm 2 m/s 746 mmHg 93%
    23:00 +20°C° 0 mm 2 m/s 746 mmHg 93%
    Arată mai mult